Wind_Speed
16 15 22 24 23 23 22 21 20 20 19 20 20 21 21 21 20 19 18 17 17 16 16 16 17 17 16 16 14 14 14 15 15 16 16 16 17 16 16 17 17 18 19 20 20 19 19 19 20 21 22 22 22 21 21 21 19 18 20 20 20 19 19 19 19 18 17 17 17 17 17 17 16 15 15 14 14 14 14 13 12 12 13 13 14
17 17 23 25 24 23 22 21 20 20 20 20 21 22 22 21 21 20 19 17 17 17 16 16 16 16 16 15 13 14 14 15 15 16 16 17 17 17 16 17 18 18 19 20 20 20 19 20 21 22 23 24 23 23 22 21 19 18 19 20 21 20 20 20 20 20 18 18 17 17 17 16 16 15 14 14 14 14 12 11 11 11 12 14 14
18 18 25 25 24 24 22 21 20 20 20 21 21 22 22 22 22 20 19 18 18 17 17 16 16 16 15 14 13 13 15 15 15 15 16 16 16 16 18 18 18 18 20 21 20 19 19 20 22 23 24 25 25 24 22 21 20 20 20 20 22 21 21 21 21 20 19 18 17 17 16 15 15 14 13 13 13 12 12 11 11 11 12 13 14
19 18 26 26 24 23 21 21 20 21 21 21 22 23 23 22 22 21 19 18 18 18 17 16 15 16 15 14 13 13 14 14 14 15 15 15 15 16 18 19 18 19 20 20 20 20 20 21 23 24 24 24 25 25 23 21 21 22 21 21 22 21 21 21 20 19 18 17 16 16 15 14 13 12 12 11 11 11 11 11 10 12 12 12 12
19 19 25 26 24 23 21 21 21 22 21 22 23 24 23 22 22 21 20 19 18 18 17 16 15 15 15 14 13 12 12 13 13 15 16 15 16 16 18 18 17 19 20 20 20 20 20 22 23 24 24 24 24 25 23 21 21 21 21 21 21 20 20 20 20 19 17 17 16 14 14 12 11 10 9 9 9 9 10 9 9 11 12 11 11
19 19 25 27 24 23 21 21 21 22 22 22 23 23 22 22 22 21 21 20 19 18 18 17 15 15 14 14 13 12 12 12 13 15 17 16 16 16 17 17 17 19 19 20 19 18 19 21 23 24 24 24 24 24 24 22 21 21 20 20 19 18 18 18 20 19 18 19 17 13 12 11 9 9 8 6 6 6 7 8 9 10 11 11 10
19 19 26 26 24 24 21 21 21 21 22 21 22 23 22 22 22 21 21 20 20 19 18 17 16 15 14 13 13 12 11 11 12 13 15 15 16 16 17 17 17 18 18 19 18 17 19 21 22 23 24 24 24 24 23 23 21 20 19 19 18 17 16 19 21 18 16 16 14 11 10 10 7 7 7 6 6 6 6 8 9 9 10 11 10
19 19 24 22 22 25 22 22 21 21 21 20 22 21 21 21 22 21 22 21 21 20 19 18 17 16 14 13 13 12 11 11 10 11 13 14 15 15 17 17 16 17 18 18 18 18 19 21 22 23 24 24 24 24 23 23 22 21 19 19 18 16 15 19 20 19 17 14 11 10 10 10 7 6 7 7 8 9 9 8 8 9 9 10 9
20 22 23 20 23 26 23 22 21 21 20 19 20 20 20 21 21 21 22 22 21 20 19 18 17 16 14 12 12 12 11 10 10 10 11 14 15 15 16 16 16 16 17 18 18 18 20 22 23 22 23 23 23 24 23 23 22 22 21 19 18 17 16 18 20 20 16 10 9 12 12 10 6 7 8 8 9 10 11 9 8 8 9 9 9
21 24 23 19 24 26 23 23 21 21 19 19 19 19 20 20 21 21 21 21 21 20 18 18 17 15 14 13 12 11 11 11 10 10 11 13 15 15 16 16 15 16 16 16 17 19 20 22 23 22 23 23 23 23 23 23 23 23 22 21 20 19 20 20 21 18 13 9 9 12 11 7 6 10 10 9 9 9 8 7 7 9 9 9 8
22 24 21 19 25 26 24 24 22 21 19 19 18 18 19 19 20 21 21 21 20 19 18 17 15 14 14 13 12 12 13 13 11 11 11 13 15 16 16 16 15 15 15 15 16 19 20 21 22 22 22 23 23 23 23 23 23 23 23 23 22 23 22 22 21 15 11 12 12 10 7 7 10 12 12 10 11 10 9 8 9 10 10 9 8
22 23 20 19 25 26 24 24 22 21 20 18 17 17 18 19 20 20 20 20 20 19 18 17 15 14 14 13 12 13 13 12 11 11 10 11 15 17 16 16 16 16 14 15 18 20 20 20 21 21 22 22 22 22 22 23 23 23 23 24 24 25 23 22 20 12 10 13 12 10 8 10 12 13 14 14 14 13 12 12 12 12 11 10 9
21 22 22 22 26 26 25 24 23 21 20 18 17 16 17 18 18 19 19 20 20 19 18 17 16 15 14 14 14 14 13 10 10 10 10 10 14 17 16 16 16 15 14 16 19 20 20 20 20 20 20 20 21 21 21 21 22 21 22 23 25 25 22 21 17 10 11 12 9 8 10 12 14 15 16 15 15 14 15 15 14 14 12 11 10
21 20 21 24 28 27 26 25 23 22 20 18 16 16 16 17 18 19 20 20 20 19 18 17 17 16 16 16 16 15 11 8 8 8 10 11 14 17 16 15 15 14 14 17 19 20 20 20 19 19 19 19 19 20 20 20 20 20 20 22 25 24 23 20 13 10 12 11 9 8 11 13 15 15 15 15 15 15 15 15 15 14 13 13 12
22 20 19 25 29 28 27 24 23 21 19 17 15 15 15 15 17 19 20 20 19 18 18 17 17 17 18 17 16 13 10 8 6 6 10 12 15 17 15 14 14 14 15 18 20 20 19 19 19 19 18 17 17 18 18 19 19 19 19 21 23 22 22 19 10 9 12 10 8 8 11 13 14 14 14 15 15 15 15 14 15 15 15 14 14
21 18 19 27 30 28 26 24 23 21 18 16 15 14 14 15 17 18 19 19 18 18 17 18 18 18 18 16 15 12 10 8 5 5 10 12 16 18 15 14 14 14 16 18 19 19 19 18 18 18 17 16 16 16 16 17 17 17 16 17 20 21 21 19 11 8 10 9 7 7 10 13 14 14 14 15 14 14 14 14 14 14 14 14 14
20 20 21 27 29 27 26 24 22 20 18 16 15 15 15 15 17 18 19 18 18 18 18 18 19 18 17 14 13 11 8 7 6 5 9 12 17 19 16 15 14 14 15 18 19 19 18 18 17 17 16 15 14 14 14 15 15 15 15 14 18 21 19 18 11 8 11 9 6 7 10 12 13 14 14 14 13 13 13 14 14 13 14 14 14
20 21 22 26 27 24 24 24 22 20 19 17 17 16 16 17 18 20 19 18 18 18 18 19 18 17 15 13 12 11 9 8 7 7 9 12 16 19 17 15 14 14 16 17 19 19 18 17 16 16 15 14 13 13 12 13 14 14 15 15 17 19 18 16 11 10 11 7 5 6 8 11 13 13 13 13 12 12 12 13 13 13 13 13 14
18 21 22 24 26 23 23 24 22 21 20 19 18 18 17 18 19 20 20 20 20 19 19 18 17 16 14 13 12 11 10 10 9 8 10 10 14 17 17 16 14 14 16 17 19 19 18 16 15 14 14 13 12 11 11 10 12 13 15 16 17 18 18 15 10 9 9 4 4 5 7 10 12 12 12 12 11 11 11 11 11 12 12 12 13
13 18 19 20 23 22 22 23 23 22 21 20 19 19 18 18 19 20 20 20 20 20 19 19 17 16 14 13 12 11 10 10 9 10 10 9 12 15 16 16 14 13 15 17 18 18 17 16 14 13 12 12 11 10 10 9 9 10 12 14 14 16 15 11 8 8 6 4 4 5 6 9 10 11 11 11 10 10 10 10 10 10 10 11 11
9 14 16 15 19 21 20 21 21 21 21 20 19 19 18 18 18 19 19 19 19 20 19 18 17 16 15 13 12 11 11 11 11 11 10 10 10 12 14 16 14 13 13 16 18 17 16 15 14 12 11 11 10 9 8 8 7 7 9 9 8 11 10 8 8 9 6 2 5 6 6 7 8 9 9 9 9 9 9 9 9 9 9 9 9
9 13 15 12 14 18 18 19 20 21 21 21 20 19 19 18 18 18 19 18 18 18 19 18 16 15 14 14 13 14 14 12 13 12 11 11 10 10 11 13 14 13 12 14 16 16 15 14 13 11 10 10 10 9 8 7 6 5 6 5 5 7 7 7 8 8 6 2 5 5 5 6 6 6 7 8 8 8 8 8 8 8 8 8 8
11 14 17 14 13 15 17 19 21 21 20 21 20 20 20 18 18 19 19 18 18 18 18 16 15 15 15 15 15 15 16 15 14 14 14 13 11 11 11 10 11 13 12 13 14 15 14 13 11 10 9 8 8 8 8 7 5 4 4 3 3 4 5 8 7 7 5 2 3 4 4 5 5 5 6 6 6 6 7 7 7 7 8 7 7
14 17 18 17 15 16 17 20 21 19 18 20 21 20 19 18 18 18 18 17 17 17 17 15 15 16 16 16 15 15 15 15 15 15 15 14 12 11 10 10 10 11 12 12 13 13 12 11 10 8 7 5 4 5 5 6 6 5 4 3 3 3 5 7 7 7 5 3 3 3 4 4 5 6 5 5 5 5 5 6 5 6 7 6 6
13 17 18 17 16 16 17 19 20 20 19 21 22 21 19 18 18 17 17 16 15 16 16 16 16 17 17 16 15 15 14 14 16 16 14 13 12 9 9 9 8 9 12 12 13 13 11 10 10 8 5 3 4 5 5 6 7 7 6 5 5 5 6 6 8 7 4 4 3 2 4 4 5 6 5 5 4 4 4 4 4 4 5 6 6
11 14 18 20 18 17 17 17 18 19 20 21 22 21 20 18 17 17 17 15 15 16 17 17 17 17 16 16 16 16 15 15 15 15 14 12 11 9 8 7 6 9 10 9 9 11 10 8 8 7 6 8 8 8 7 9 8 6 6 6 7 7 6 8 10 8 5 4 4 2 3 4 5 5 4 4 4 4 3 3 3 3 4 5 5
10 12 18 23 24 22 20 18 19 20 20 20 21 21 20 18 17 18 16 15 15 17 18 17 17 17 16 17 17 16 14 15 15 15 14 12 11 10 10 10 9 9 9 8 7 5 6 6 8 9 10 11 8 7 9 11 8 7 7 7 9 8 8 11 11 8 5 4 4 3 3 3 5 5 5 4 4 4 3 3 3 3 3 4 4
12 14 21 27 28 28 27 23 21 22 21 20 19 18 17 17 19 18 16 16 17 17 19 17 18 18 17 17 17 16 15 15 16 16 14 12 11 11 11 12 11 9 10 9 7 7 10 12 12 10 8 7 6 7 9 9 8 7 6 7 9 10 10 10 11 8 6 5 5 4 3 3 3 4 5 5 5 5 4 4 3 3 3 4 4
17 18 26 30 27 27 29 25 23 22 21 20 17 14 15 17 19 17 16 17 16 17 19 18 18 19 18 17 17 16 15 16 16 15 14 13 13 12 11 11 10 9 10 9 9 11 12 12 10 7 7 6 7 8 7 7 8 8 8 9 10 11 9 8 11 9 5 6 5 4 3 2 2 3 4 4 5 5 5 5 4 4 4 4 4
16 19 28 31 27 26 24 22 21 21 19 18 16 14 15 16 18 17 16 18 17 18 18 18 20 21 21 20 20 20 17 17 17 16 15 16 16 14 12 12 11 10 10 11 11 11 10 9 8 7 7 7 7 8 8 8 9 10 9 10 13 13 5 6 8 7 6 7 6 5 3 2 2 2 3 4 5 6 7 7 6 5 5 4 4
12 22 29 27 29 29 25 22 20 20 18 18 16 17 17 17 18 17 16 17 18 17 18 20 22 21 21 21 22 22 21 20 20 19 18 19 18 16 14 13 12 11 10 11 11 10 9 8 8 7 7 7 6 7 7 7 8 8 8 10 13 13 5 11 8 5 7 8 7 5 4 2 1 1 2 4 5 7 8 8 7 7 7 7 6
19 27 27 22 25 28 27 26 22 21 19 20 20 19 19 18 17 15 15 17 17 17 17 19 19 18 19 20 21 21 21 21 21 21 20 20 19 17 15 13 12 12 11 10 9 8 7 7 9 10 10 8 6 7 6 6 6 6 6 5 1 3 4 4 4 4 5 7 8 6 5 3 2 1 2 3 5 7 8 9 9 9 10 10 10
21 25 21 19 23 24 25 26 24 24 21 21 21 19 19 18 16 14 14 15 15 16 17 16 16 16 19 20 21 21 21 20 20 21 21 21 20 17 16 14 13 13 12 10 9 8 7 8 9 9 10 8 6 6 6 5 5 5 6 3 5 4 2 7 6 7 6 6 8 7 6 5 3 2 2 3 4 6 7 8 10 11 12 12 12
18 21 20 19 20 20 22 23 24 25 23 21 19 17 17 16 16 15 14 14 14 16 16 16 14 13 18 21 21 22 21 20 20 20 21 21 19 17 15 14 14 13 11 11 9 7 7 7 7 7 7 6 5 5 4 4 4 5 6 6 5 3 2 5 7 9 8 7 8 8 8 7 5 4 2 3 4 5 5 7 8 10 10 10 12
18 20 21 18 17 17 17 20 21 21 20 19 18 16 16 16 17 16 16 15 15 16 15 18 17 13 18 22 21 21 20 19 18 18 20 20 18 17 16 14 13 11 9 10 9 7 6 6 6 6 6 5 5 5 4 4 4 5 5 2 3 4 2 4 8 9 8 8 9 9 9 8 7 6 4 4 4 5 5 5 6 7 7 7 9
20 23 21 17 16 14 13 15 15 16 17 16 15 15 14 15 17 17 17 16 15 16 14 17 18 13 16 20 20 20 20 19 16 16 18 18 17 16 15 13 11 10 9 10 9 7 8 8 7 6 6 6 5 5 4 5 4 4 4 2 3 5 3 4 8 9 10 10 9 8 8 7 8 8 6 5 4 4 4 5 5 5 5 6 6
19 23 20 16 15 12 11 11 11 14 15 14 14 14 14 14 16 17 18 17 16 16 14 16 17 14 16 18 18 19 19 17 14 14 15 14 14 14 14 13 11 10 10 10 9 6 7 9 9 7 6 7 6 6 4 3 3 3 4 4 5 6 5 6 8 8 10 9 8 8 7 7 8 8 6 5 5 4 5 5 5 5 5 5 5
17 19 18 15 15 14 12 12 13 14 15 15 15 14 14 14 16 17 17 17 16 15 14 15 15 15 18 18 18 18 17 15 11 12 13 12 13 13 13 13 12 10 10 9 9 7 7 8 7 6 7 7 5 6 5 3 4 4 4 4 4 7 8 7 7 7 8 7 7 8 7 8 7 8 8 6 6 4 5 5 5 5 4 4 4
17 17 16 15 16 15 12 12 14 15 15 16 15 15 14 15 16 16 17 16 15 14 14 15 14 14 17 17 16 18 17 14 10 11 12 11 12 12 11 12 11 9 9 8 8 7 8 9 7 7 9 7 4 5 5 4 5 5 5 4 3 5 7 7 7 7 7 7 6 5 4 6 6 8 8 7 6 5 5 4 5 4 4 4 3
17 17 15 13 13 13 11 11 13 15 16 16 16 17 17 16 16 17 18 16 14 14 13 14 14 15 17 15 14 17 17 15 11 10 11 10 11 12 10 10 9 8 9 9 8 7 8 8 8 8 8 8 6 6 6 5 5 5 5 5 4 4 5 6 7 5 6 6 4 2 2 3 4 6 7 7 6 5 5 4 4 4 4 4 3
18 17 15 13 12 12 13 14 16 16 16 16 17 19 18 17 16 18 18 15 14 14 14 15 15 14 15 15 15 16 16 14 11 10 11 11 10 10 9 9 8 7 9 10 9 8 8 8 7 7 7 7 6 6 6 5 6 5 5 4 4 4 5 4 4 4 5 5 3 2 2 3 3 4 5 5 5 4 4 4 4 4 5 4 2
16 16 15 13 12 12 13 17 20 19 15 14 16 17 16 16 17 18 17 15 14 14 15 16 15 13 13 16 17 16 15 13 11 11 12 12 10 8 8 9 9 8 9 10 10 10 9 8 7 6 6 5 4 6 6 5 5 5 5 5 5 5 5 4 4 5 4 4 4 3 2 3 4 4 4 4 4 4 4 3 2 4 5 4 3
14 14 12 11 11 10 13 18 20 18 15 13 14 14 14 16 18 18 16 15 14 15 15 15 15 15 14 15 16 15 15 13 13 13 12 12 10 7 7 8 9 9 9 9 9 9 8 8 7 6 6 5 4 6 6 7 8 7 5 5 6 6 5 5 5 5 4 3 3 3 1 3 4 4 5 5 4 4 5 3 2 4 4 5 5
13 13 10 9 10 9 12 18 18 17 15 13 14 15 14 17 18 17 16 15 14 15 15 11 12 15 14 15 15 15 14 12 12 11 10 10 9 8 8 9 8 9 9 8 8 7 7 7 9 8 8 6 6 5 6 8 9 8 6 3 5 6 5 6 6 5 4 3 3 2 2 3 3 4 5 5 5 5 5 5 4 4 4 5 5
13 12 11 10 11 11 11 13 15 16 14 12 14 16 16 18 18 16 16 16 15 16 16 11 10 13 15 16 16 15 12 10 10 9 8 7 7 8 7 9 9 8 8 8 7 8 7 7 8 9 9 8 7 6 7 8 7 7 5 3 5 4 4 9 8 6 5 4 3 4 4 4 2 3 4 4 4 4 4 4 4 4 3 4 3
14 13 11 11 11 13 12 12 14 15 13 12 14 16 17 18 17 15 16 16 15 15 14 12 11 13 15 14 13 13 11 10 9 8 7 6 6 7 6 7 7 6 8 8 8 9 9 8 7 7 8 8 8 7 6 8 7 8 5 2 3 3 6 11 9 7 8 5 3 3 4 4 3 4 5 3 3 4 4 4 3 2 1 2 2
14 11 10 12 12 14 14 14 16 14 13 14 15 16 16 16 16 15 15 15 13 12 12 11 10 11 12 12 11 11 10 8 8 7 6 5 6 6 5 6 5 5 7 7 7 8 9 9 7 7 8 8 9 7 6 6 7 8 6 3 3 2 6 11 9 9 9 7 5 4 4 5 5 5 5 4 3 3 4 3 2 1 1 2 3
14 11 12 15 15 16 15 16 17 14 13 15 15 15 15 16 15 13 14 14 12 12 13 13 12 11 10 10 9 9 8 7 8 7 6 6 6 6 5 6 5 5 5 5 6 6 7 9 9 9 10 9 10 9 7 6 6 6 7 6 5 4 6 9 8 8 8 8 8 6 5 6 6 6 5 4 3 3 3 3 3 3 3 3 4
13 13 16 17 16 16 16 17 18 15 14 16 17 17 16 18 17 15 15 15 14 14 14 13 12 11 10 9 8 8 8 8 8 7 7 6 7 6 6 6 5 5 5 5 6 6 7 7 7 9 11 10 10 10 9 8 7 7 8 6 5 4 6 7 6 7 9 10 9 7 7 7 6 5 4 2 2 2 3 4 5 5 4 4 4
12 14 16 16 17 17 17 18 18 17 16 19 20 20 19 19 19 18 18 16 15 15 15 14 12 11 11 10 9 9 9 8 8 8 7 7 7 7 7 7 7 7 5 5 5 6 6 5 4 5 7 8 8 10 10 9 9 9 7 6 7 6 5 6 5 6 10 10 8 8 8 8 7 5 4 2 2 2 2 4 6 5 5 5 5
13 14 15 16 18 18 17 19 19 19 20 21 22 21 19 19 18 17 17 17 16 15 15 15 13 12 11 11 11 10 9 8 8 8 8 7 7 7 7 6 6 7 6 4 5 3 3 3 4 4 4 5 6 8 9 9 9 9 8 7 9 8 6 7 6 5 9 9 9 10 8 8 8 5 5 5 4 4 5 6 6 6 8 6 4
Wind_Direction
156 185 177 165 161 158 157 155 157 157 158 158 157 158 161 164 165 164 161 154 147 144 142 144 142 139 140 143 150 150 147 143 139 138 139 137 134 132 128 123 118 113 109 106 102 97 96 94 90 86 84 84 86 94 107 116 119 118 112 109 111 105 93 89 90 91 93 95 96 96 95 95 95 95 94 93 93 88 82 81 78 73 74 77 78
153 174 175 166 163 161 159 158 158 158 159 158 159 162 164 166 167 166 163 158 152 148 145 146 146 142 138 140 146 150 151 148 145 145 146 144 141 138 132 125 120 117 113 107 101 99 98 97 93 89 87 86 87 92 101 112 115 114 112 111 114 106 92 90 91 90 90 91 91 92 93 94 93 92 92 91 88 84 77 76 80 84 89 86 82
150 164 172 167 165 164 161 159 159 159 159 158 161 164 167 168 168 167 165 162 156 153 149 148 148 145 140 139 142 148 151 150 150 151 152 149 146 142 132 125 123 121 115 109 105 103 102 100 96 92 89 87 88 92 98 106 110 113 116 117 115 105 94 92 91 89 87 86 85 86 86 86 87 87 85 85 82 77 70 68 75 85 95 95 92
147 159 171 169 166 166 162 161 160 160 159 159 163 166 169 170 169 169 167 165 161 158 154 151 151 149 145 144 143 145 149 150 152 154 156 153 149 142 131 128 128 124 118 114 111 107 106 103 98 94 91 89 90 93 97 101 106 112 118 119 114 106 99 93 88 87 86 84 82 82 81 77 78 81 79 77 73 66 63 66 76 84 91 93 96
147 159 171 170 167 167 164 162 162 160 160 160 164 169 171 172 171 171 170 169 166 163 158 156 154 153 150 150 147 143 145 150 155 157 157 152 144 137 131 133 132 126 122 121 116 112 108 103 100 97 94 93 93 95 98 101 104 110 116 118 114 111 105 95 87 81 78 78 75 75 79 76 67 66 69 70 66 63 63 66 80 88 90 89 91
148 160 169 171 169 168 166 165 164 162 161 162 165 169 172 173 174 173 173 173 171 167 163 161 159 159 157 154 150 145 144 150 159 159 154 149 141 137 137 138 135 129 127 126 121 116 111 106 102 100 98 96 96 98 101 103 105 108 112 115 115 116 109 94 84 76 71 70 69 69 71 71 71 74 70 71 75 71 69 71 82 89 89 90 89
152 160 166 171 170 168 167 167 165 162 161 162 166 169 172 174 175 176 175 175 174 172 168 165 164 164 163 158 152 148 145 150 161 160 153 150 147 144 143 140 136 132 131 130 125 121 117 111 105 103 101 100 99 99 102 105 106 108 109 111 114 115 108 91 81 72 64 64 68 72 73 71 80 97 85 76 82 75 71 69 78 84 86 88 87
155 157 161 168 169 167 167 168 165 162 162 163 167 169 172 175 176 177 176 177 177 176 173 169 168 167 167 161 154 152 150 153 162 164 158 156 153 149 147 142 139 135 133 134 130 125 121 115 110 108 106 103 102 101 101 103 106 108 108 109 110 112 109 96 87 76 66 66 75 74 74 76 71 85 87 76 73 70 70 67 75 82 81 81 81
156 158 161 170 170 166 166 167 164 161 162 163 167 169 173 176 177 179 178 180 181 179 176 172 170 168 167 161 157 158 153 154 164 169 166 160 157 155 151 143 142 138 131 133 134 129 124 118 115 112 110 107 105 103 102 102 104 106 107 108 108 108 103 92 82 74 73 78 95 98 91 89 77 72 76 75 75 74 75 72 75 80 80 77 75
153 158 164 178 170 164 166 164 162 160 160 162 165 169 173 178 179 180 182 183 183 181 177 173 169 166 165 161 159 157 151 156 165 170 171 162 159 160 153 144 143 137 128 129 132 132 127 122 120 118 114 111 108 106 104 104 104 105 107 108 109 105 94 82 72 67 75 78 94 116 115 101 78 73 73 71 76 77 77 77 77 78 81 83 79
155 160 166 179 168 162 164 162 161 159 159 161 162 167 172 177 180 182 184 184 183 181 176 170 165 163 162 160 158 155 155 165 166 167 171 163 162 162 153 146 141 133 128 131 133 134 131 126 124 121 118 115 113 111 109 107 106 107 108 110 110 103 91 82 75 71 78 76 80 96 97 79 71 74 76 73 74 76 78 78 78 77 78 84 86
160 161 167 174 163 161 162 162 161 159 158 159 161 166 171 176 180 182 183 183 181 177 172 166 163 162 161 161 160 159 161 168 166 167 177 168 166 164 154 148 142 136 137 140 138 136 133 129 125 123 120 118 117 114 112 111 109 109 110 111 107 97 89 83 81 81 81 83 94 95 85 81 81 81 80 77 76 77 78 75 75 76 78 82 84
163 161 172 171 160 162 163 163 161 159 158 159 162 165 170 175 177 178 179 178 176 172 167 165 164 164 164 161 157 157 160 166 166 174 189 178 171 165 154 150 147 144 146 147 141 137 135 131 128 125 121 119 118 116 115 113 111 112 113 111 105 98 92 84 83 88 86 86 100 103 94 90 89 86 84 82 81 80 78 76 75 75 76 79 80
162 164 177 170 161 164 164 164 161 159 159 159 161 163 167 169 170 171 172 172 172 170 168 168 168 166 164 161 155 156 159 166 169 177 194 186 174 168 155 152 153 152 154 150 143 140 138 134 131 128 124 121 118 117 115 114 113 114 115 111 105 101 93 83 80 89 86 86 93 96 96 94 91 88 88 87 84 82 79 79 78 76 76 77 78
164 167 171 167 163 164 166 166 163 161 159 159 158 159 161 163 165 166 168 169 170 170 170 170 169 165 161 158 153 153 155 160 170 184 198 190 176 169 156 154 160 161 158 151 147 144 141 137 134 131 128 124 121 119 117 116 115 116 117 113 106 102 97 93 90 88 87 89 92 95 98 96 94 92 90 88 87 86 83 82 81 80 78 75 75
167 166 160 165 165 164 167 166 164 161 157 157 154 152 155 159 161 163 164 164 166 166 168 167 164 161 158 155 147 149 155 160 172 194 201 191 176 167 157 160 168 169 160 152 151 148 145 142 139 135 131 127 125 121 120 119 118 118 120 116 110 105 103 102 96 88 92 92 87 95 102 100 99 97 93 92 90 88 87 86 84 83 81 78 74
168 162 156 166 165 163 166 167 165 160 156 154 149 149 152 156 159 160 161 162 162 162 165 164 161 159 158 155 148 154 171 177 181 191 198 189 177 167 161 166 173 176 163 153 155 153 150 147 144 139 133 131 128 124 124 123 121 120 118 115 113 110 105 99 99 102 95 95 103 101 101 102 99 98 96 94 92 91 90 90 89 87 85 83 80
164 157 158 166 164 163 165 166 162 157 155 151 149 150 150 154 157 159 159 161 160 160 164 164 160 159 160 157 152 160 174 183 184 183 185 184 180 171 165 170 178 181 165 158 161 157 154 152 149 143 137 134 131 130 127 125 125 121 116 113 109 105 97 91 95 98 91 102 138 114 102 106 100 96 94 91 92 94 93 93 93 93 91 88 85
162 158 162 166 163 162 164 164 160 158 156 151 152 151 151 152 154 157 158 160 159 161 165 164 162 161 161 156 153 159 168 180 183 176 173 171 174 175 174 172 181 184 168 164 164 159 157 156 152 147 142 138 134 133 130 130 127 122 120 113 106 98 87 86 92 95 99 139 165 120 112 110 102 99 96 92 91 93 94 94 94 94 94 92 90
167 165 162 166 164 162 164 165 162 159 156 151 150 149 150 150 152 157 158 160 160 163 165 164 165 163 161 158 158 159 164 172 169 169 171 164 164 174 183 183 186 185 171 168 167 163 160 158 154 151 147 141 140 135 132 133 127 128 127 120 112 97 85 91 104 102 110 177 166 131 125 113 106 104 101 97 93 92 92 90 91 91 91 91 92
176 173 164 168 169 167 165 164 162 160 157 150 148 149 148 149 153 157 159 162 164 165 166 167 166 165 164 162 161 161 163 163 159 166 173 172 172 174 181 190 196 190 179 172 169 167 165 162 158 155 152 144 142 140 139 138 134 135 131 133 120 93 88 99 104 96 90 164 156 141 134 120 114 112 107 100 94 90 87 85 87 87 85 85 86
180 176 172 176 170 166 164 161 162 160 156 151 150 151 148 150 155 158 160 162 165 167 168 168 166 165 165 164 164 163 160 161 162 166 174 178 186 188 181 190 200 196 192 181 174 172 169 168 165 163 159 150 147 146 148 145 145 144 142 155 116 96 107 111 111 111 104 136 140 140 142 125 120 112 106 97 91 86 82 79 80 80 76 73 74
178 174 174 181 172 165 165 164 165 162 159 156 153 150 150 153 154 156 159 161 164 166 166 165 166 165 165 169 170 166 162 165 166 167 175 176 186 201 195 195 200 197 197 190 183 180 176 175 173 170 164 159 156 154 153 150 157 155 156 161 114 124 132 119 127 127 122 132 111 126 139 124 120 106 99 95 91 89 82 77 75 74 71 68 67
182 177 176 179 177 175 175 174 170 162 163 161 155 151 153 155 155 156 158 163 165 165 165 165 169 169 170 171 171 172 168 167 168 170 176 175 184 203 206 208 208 200 198 196 194 191 187 184 181 183 175 162 160 172 174 170 171 175 183 156 137 168 141 128 138 134 134 133 105 127 135 126 120 104 97 98 96 96 90 84 78 74 74 71 65
191 189 187 181 180 186 186 183 172 159 168 168 157 155 157 159 161 161 162 166 168 170 170 171 175 173 173 171 169 175 169 166 169 172 177 176 185 196 206 216 212 200 196 198 201 200 201 199 197 195 185 180 192 202 215 220 198 188 199 167 168 187 154 149 150 156 174 133 124 150 145 146 123 101 94 95 92 96 96 91 85 76 78 77 70
205 209 205 194 187 195 194 188 176 170 179 174 163 161 161 161 165 168 167 167 172 177 175 178 183 177 173 169 170 175 168 168 168 168 175 176 181 183 186 189 189 189 182 190 206 205 207 214 213 197 200 213 206 200 210 232 228 211 214 182 179 193 174 174 168 177 196 138 135 145 154 163 131 103 91 90 87 90 101 101 94 83 76 77 74
224 216 206 198 191 195 200 195 185 183 184 176 171 166 159 160 170 170 164 167 179 183 178 182 185 178 173 168 169 170 165 169 168 168 174 174 175 170 164 163 176 180 164 181 201 191 188 200 208 200 206 213 203 206 214 224 231 223 222 196 185 195 194 188 176 179 185 152 139 127 137 145 119 101 89 86 83 82 95 105 102 95 86 83 79
236 211 196 194 189 189 195 193 186 183 179 179 180 170 162 168 175 168 164 178 186 184 180 183 185 179 174 172 170 166 166 170 170 172 170 167 168 162 160 162 172 173 164 181 185 172 183 194 205 205 201 204 207 221 226 228 233 235 228 210 197 196 206 197 171 170 184 166 147 137 137 130 111 100 97 90 87 85 85 92 97 99 96 95 89
253 227 201 191 183 176 179 180 180 179 172 177 181 175 175 178 178 171 177 190 186 184 188 188 186 181 177 174 169 163 165 168 167 167 163 166 167 160 159 159 162 169 167 170 177 187 194 197 202 194 178 187 207 217 226 227 229 237 229 216 208 200 211 201 169 172 179 157 155 161 151 138 116 96 99 96 92 89 81 80 81 88 88 88 90
253 229 199 188 181 172 168 169 179 179 166 167 178 188 188 183 181 178 187 193 186 188 195 193 188 185 181 177 172 166 167 170 167 165 169 175 169 160 160 161 163 168 172 173 181 191 189 184 182 174 179 192 204 211 216 218 220 224 225 224 217 204 177 92 131 176 190 172 176 184 167 145 119 94 100 101 95 87 75 71 72 79 84 84 86
209 200 188 185 180 171 162 158 173 184 176 172 183 199 198 189 186 186 191 194 194 196 198 196 193 187 179 179 180 174 173 175 172 173 179 179 170 164 165 167 169 171 178 181 184 186 178 177 174 171 189 201 204 209 209 216 223 220 232 240 225 209 153 73 86 151 180 185 196 197 183 172 134 86 97 103 98 90 76 69 74 82 85 83 78
187 186 186 189 173 162 157 156 171 189 187 182 185 195 198 193 192 195 195 195 201 204 200 200 198 190 181 179 181 180 181 181 179 181 182 179 173 169 168 169 175 179 182 181 182 179 174 186 186 184 191 195 202 213 211 218 226 220 233 252 261 224 189 134 137 165 178 190 200 203 193 191 164 83 87 101 101 93 80 75 81 84 85 82 77
187 186 190 187 170 162 161 163 174 183 183 186 188 192 196 196 197 203 206 204 205 202 202 205 199 191 185 182 181 184 187 184 186 188 183 179 176 172 173 175 178 182 182 181 185 180 182 199 198 196 196 191 202 214 211 211 222 223 237 280 29 37 156 159 168 193 210 204 197 200 192 187 167 106 76 88 104 100 88 86 89 89 87 84 78
188 187 186 180 173 167 163 163 171 178 182 187 190 192 197 200 201 204 210 210 203 201 208 213 204 189 186 186 186 190 191 187 188 189 183 179 176 174 174 176 178 179 180 180 179 175 187 202 195 197 199 193 207 215 211 213 217 213 240 300 4 51 134 145 164 192 210 208 195 200 198 184 167 152 114 86 95 104 108 105 101 99 96 87 79
190 182 180 183 181 172 167 163 167 177 181 186 189 192 199 206 209 207 208 205 202 207 216 215 208 195 191 192 192 195 195 190 187 183 181 178 174 172 171 173 175 172 175 174 165 167 181 185 183 194 193 187 205 211 207 207 210 205 214 317 47 105 114 164 186 196 208 214 200 199 199 184 175 175 160 121 97 97 120 126 115 110 106 94 84
184 179 179 186 183 174 175 169 169 176 177 185 193 196 202 210 213 213 210 206 208 215 219 219 213 200 194 194 194 196 197 195 191 182 178 173 169 169 170 171 166 164 174 169 157 168 179 172 177 188 184 188 200 202 208 205 207 214 199 190 173 159 140 179 193 196 202 205 196 195 194 183 185 184 167 145 123 98 107 128 126 112 103 99 100
179 179 178 180 180 174 176 176 179 182 182 190 195 197 203 210 215 214 212 211 215 221 222 222 216 204 199 196 197 201 199 200 199 188 178 168 163 171 178 170 159 166 173 167 160 173 184 178 179 183 183 194 196 188 199 205 195 187 172 203 208 175 171 187 187 193 199 195 193 196 188 186 189 178 170 162 146 116 100 119 126 115 105 100 110
179 179 177 178 181 182 184 183 187 189 192 198 196 199 205 211 217 214 216 219 221 223 223 220 213 206 206 201 201 206 204 202 199 189 184 176 168 177 184 167 158 167 171 171 166 169 187 183 178 180 182 186 187 182 186 183 170 153 160 203 205 166 173 187 184 191 195 191 201 205 189 187 181 164 174 175 156 136 113 110 109 109 110 109 114
181 179 179 179 178 184 188 183 190 196 198 201 200 205 210 212 216 216 222 226 222 220 222 221 214 208 209 205 203 208 208 204 195 186 187 184 180 189 184 160 160 167 165 169 166 172 189 184 180 187 186 183 181 179 179 178 170 159 159 167 167 163 172 188 193 191 195 200 209 216 191 181 172 158 167 172 154 137 125 108 96 99 95 101 118
183 177 178 183 178 183 190 186 196 202 202 206 206 207 212 212 215 220 223 222 219 218 218 218 214 205 203 200 198 206 209 205 196 188 187 188 195 201 183 158 163 163 155 159 164 181 190 185 189 198 198 198 198 184 174 174 171 172 172 160 161 167 164 182 193 194 215 216 204 230 198 172 171 156 156 163 155 140 127 103 95 104 88 90 115
182 174 178 189 191 196 198 195 200 205 207 213 212 209 211 210 214 221 221 218 220 220 213 208 206 200 196 193 193 201 205 202 196 192 191 196 202 198 176 154 156 159 160 162 167 180 182 184 191 194 198 200 202 196 182 177 176 177 179 167 158 151 142 155 177 190 226 222 196 227 212 174 173 154 148 153 150 149 142 117 105 104 86 83 107
178 176 177 185 202 215 207 201 208 209 211 217 215 213 212 212 215 216 216 218 220 218 208 202 195 187 191 195 194 196 199 195 194 196 196 202 206 191 169 154 156 170 173 172 183 187 178 180 182 181 188 184 197 208 190 177 190 191 179 162 135 128 140 140 148 169 201 220 210 214 199 183 182 159 146 144 140 145 137 125 113 105 97 101 113
178 177 178 185 204 223 214 210 216 213 209 212 211 211 212 216 215 214 218 219 216 210 204 201 192 181 180 184 185 191 195 191 193 196 191 194 196 179 164 158 166 180 177 179 194 189 176 175 173 175 182 177 195 216 197 185 198 200 188 174 150 146 151 145 156 166 168 198 207 203 192 190 188 163 147 142 141 142 140 150 152 137 127 114 108
179 178 186 195 197 207 209 212 217 212 209 210 204 203 208 214 213 214 219 215 211 207 201 200 191 182 177 173 175 185 187 186 191 192 183 186 184 170 168 168 176 187 181 180 182 176 179 185 179 175 179 183 192 212 209 194 195 197 192 183 170 172 155 139 158 168 150 161 176 173 173 174 184 171 156 150 150 152 157 163 166 176 155 121 113
178 183 191 196 201 202 200 206 209 202 204 206 200 199 201 207 210 211 211 206 205 207 205 200 181 176 178 173 175 180 177 177 185 185 181 183 178 172 178 177 181 185 173 169 170 169 179 191 192 184 183 193 186 194 218 203 195 206 202 161 166 190 172 145 145 152 156 161 150 137 149 162 157 143 154 172 164 156 166 163 175 207 180 144 152
184 190 184 182 201 206 196 194 191 187 197 203 200 200 196 199 205 204 203 201 202 206 209 207 183 173 174 168 169 174 174 177 179 179 176 172 175 178 178 174 180 177 163 165 177 176 174 185 202 195 193 205 190 182 213 212 206 212 210 150 164 193 176 162 150 146 151 151 143 130 140 158 154 140 150 173 175 183 194 179 183 218 177 138 152
189 189 175 175 198 208 201 196 189 185 201 204 198 197 191 194 199 198 201 201 201 205 206 202 186 176 173 167 167 168 170 174 170 169 169 164 172 176 172 169 171 171 168 176 184 176 175 182 189 195 202 212 204 190 196 208 213 212 203 189 194 182 173 175 166 155 152 152 163 162 151 155 152 148 144 142 163 191 191 169 149 146 91 104 109
195 195 180 176 191 205 204 204 198 186 197 200 191 193 191 190 189 187 199 203 199 200 201 196 188 183 177 170 167 163 164 166 162 164 167 166 165 165 169 168 164 169 173 181 180 172 182 189 189 201 211 212 209 203 190 191 207 217 209 200 194 169 173 187 177 168 165 158 164 172 171 162 153 158 154 141 167 183 169 157 131 113 92 100 100
200 191 181 176 184 196 197 203 197 176 187 199 191 195 195 186 181 179 188 195 192 192 199 201 194 185 175 167 162 159 161 163 162 160 162 164 161 162 166 162 164 167 161 163 169 172 187 201 205 207 210 213 213 208 197 194 201 209 211 208 202 179 177 184 177 179 175 160 161 167 168 165 157 165 168 164 194 189 170 151 125 112 111 109 101
188 173 175 178 179 183 184 192 186 171 190 204 195 195 193 183 182 180 180 185 189 190 195 197 191 178 167 162 160 159 160 162 164 162 163 164 158 161 165 164 166 155 145 157 162 170 183 190 200 200 203 210 212 208 206 208 209 208 208 204 200 195 184 173 169 184 179 166 161 162 162 159 150 150 156 149 143 127 108 115 118 117 111 106 103
175 171 179 180 177 178 180 185 181 175 189 199 195 191 186 179 178 178 179 183 187 189 189 187 181 172 165 164 162 159 158 159 163 166 172 169 155 156 157 155 162 145 137 158 147 148 192 193 198 206 212 215 210 209 211 213 214 213 213 211 205 199 190 179 175 181 178 167 158 162 164 153 143 147 147 131 120 121 111 113 122 120 115 117 123
Height
1490 1489 1492 1493 1495 1496 1498 1500 1502 1504 1506 1507 1509 1511 1512 1514 1515 1517 1518 1520 1521 1522 1524 1525 1526 1527 1528 1529 1530 1530 1531 1531 1532 1532 1532 1533 1533 1534 1534 1535 1536 1536 1536 1536 1536 1536 1536 1536 1536 1535 1534 1533 1533 1532 1533 1533 1534 1534 1535 1536 1537 1538 1538 1538 1538 1538 1539 1539 1539 1539 1539 1539 1539 1539 1540 1540 1540 1539 1539 1540 1540 1540 1540 1540 1539
1490 1490 1492 1494 1495 1497 1499 1500 1502 1504 1506 1507 1509 1511 1512 1514 1516 1517 1518 1520 1521 1523 1524 1526 1527 1528 1529 1529 1530 1531 1532 1532 1532 1533 1533 1534 1534 1535 1536 1536 1537 1537 1537 1538 1538 1538 1538 1537 1537 1536 1536 1535 1534 1534 1534 1534 1535 1536 1537 1538 1538 1539 1540 1540 1540 1540 1541 1541 1541 1541 1541 1541 1541 1541 1541 1541 1541 1540 1541 1541 1541 1541 1541 1541 1541
1490 1490 1492 1494 1496 1497 1499 1500 1502 1503 1506 1507 1509 1511 1513 1514 1516 1518 1519 1520 1521 1523 1525 1526 1527 1528 1529 1530 1531 1531 1532 1533 1533 1534 1534 1535 1535 1536 1537 1537 1538 1538 1539 1539 1539 1539 1539 1539 1539 1538 1538 1537 1536 1536 1536 1536 1536 1538 1538 1539 1540 1541 1541 1542 1542 1542 1542 1543 1543 1543 1543 1542 1542 1542 1543 1543 1542 1542 1542 1542 1542 1542 1542 1542 1541
1490 1491 1492 1494 1496 1498 1499 1500 1502 1503 1505 1507 1509 1511 1513 1514 1516 1518 1519 1521 1522 1524 1525 1526 1528 1528 1530 1531 1532 1532 1533 1533 1534 1534 1535 1536 1536 1537 1537 1538 1539 1539 1540 1540 1541 1541 1541 1541 1540 1540 1539 1539 1538 1538 1538 1538 1538 1539 1540 1541 1541 1542 1543 1543 1544 1544 1544 1544 1545 1545 1544 1544 1543 1543 1544 1543 1543 1543 1543 1543 1544 1543 1543 1543 1542
1489 1491 1492 1495 1496 1498 1499 1500 1502 1503 1505 1507 1509 1511 1513 1514 1516 1518 1520 1521 1522 1524 1525 1527 1528 1529 1530 1531 1532 1533 1534 1534 1535 1535 1536 1536 1537 1537 1538 1539 1539 1540 1541 1541 1542 1542 1542 1542 1542 1541 1541 1541 1540 1540 1540 1540 1540 1541 1542 1543 1543 1544 1544 1545 1545 1546 1546 1546 1546 1546 1546 1546 1545 1545 1544 1544 1544 1544 1545 1545 1545 1544 1544 1543 1543
1490 1491 1492 1495 1496 1498 1499 1501 1502 1503 1505 1507 1509 1511 1513 1515 1517 1518 1520 1521 1523 1524 1526 1527 1528 1530 1530 1531 1533 1533 1535 1535 1536 1536 1536 1537 1537 1538 1539 1540 1540 1541 1542 1542 1543 1543 1544 1544 1543 1543 1543 1543 1542 1542 1542 1542 1542 1543 1543 1544 1545 1545 1546 1546 1546 1547 1547 1547 1548 1548 1548 1548 1547 1547 1546 1546 1546 1546 1546 1546 1546 1545 1544 1544 1544
1491 1492 1493 1494 1495 1497 1499 1501 1502 1504 1505 1507 1509 1511 1513 1515 1517 1519 1520 1522 1523 1525 1526 1527 1529 1530 1531 1532 1533 1534 1535 1536 1536 1537 1537 1538 1538 1539 1539 1540 1541 1542 1543 1543 1544 1545 1545 1545 1545 1544 1544 1544 1544 1544 1544 1544 1544 1545 1545 1546 1546 1547 1547 1548 1547 1548 1548 1548 1551 1552 1551 1550 1549 1548 1548 1547 1547 1547 1546 1546 1546 1546 1545 1545 1545
1490 1493 1494 1494 1495 1497 1499 1501 1502 1504 1506 1508 1509 1511 1514 1515 1517 1519 1520 1522 1523 1525 1526 1528 1529 1530 1531 1533 1533 1534 1535 1536 1537 1537 1538 1539 1539 1540 1540 1541 1542 1543 1544 1544 1545 1546 1546 1546 1546 1546 1546 1546 1546 1545 1545 1545 1546 1546 1546 1547 1548 1548 1549 1549 1550 1550 1550 1552 1554 1555 1554 1552 1550 1548 1548 1548 1547 1547 1547 1547 1546 1546 1546 1546 1545
1491 1494 1495 1495 1495 1497 1499 1501 1503 1505 1506 1508 1510 1512 1514 1516 1518 1519 1521 1522 1523 1525 1526 1528 1530 1531 1532 1533 1534 1535 1536 1537 1537 1538 1539 1539 1540 1541 1541 1542 1543 1544 1544 1545 1546 1547 1547 1548 1548 1548 1547 1547 1547 1547 1547 1547 1547 1547 1548 1548 1549 1550 1550 1551 1551 1551 1553 1555 1555 1554 1554 1553 1550 1549 1548 1548 1548 1547 1547 1547 1547 1547 1547 1547 1546
1491 1494 1495 1494 1495 1498 1500 1502 1504 1505 1507 1508 1510 1512 1514 1516 1517 1519 1521 1522 1524 1525 1527 1528 1530 1532 1533 1534 1535 1536 1536 1538 1538 1539 1539 1540 1541 1542 1542 1543 1544 1544 1545 1546 1547 1548 1548 1549 1549 1549 1549 1548 1548 1548 1548 1548 1548 1548 1549 1549 1550 1551 1552 1552 1552 1553 1555 1556 1554 1554 1553 1552 1550 1549 1549 1549 1548 1548 1548 1548 1547 1547 1547 1547 1547
1492 1494 1495 1494 1495 1498 1500 1502 1504 1506 1507 1509 1511 1512 1514 1516 1517 1519 1521 1522 1524 1526 1527 1529 1531 1532 1533 1534 1535 1536 1537 1538 1539 1539 1540 1541 1542 1542 1543 1544 1545 1545 1546 1547 1548 1548 1549 1549 1550 1550 1550 1550 1550 1550 1550 1550 1549 1550 1550 1551 1551 1552 1552 1552 1552 1556 1558 1556 1556 1555 1553 1552 1551 1550 1550 1550 1549 1549 1549 1549 1548 1548 1548 1548 1548
1492 1494 1495 1495 1496 1499 1501 1503 1504 1506 1508 1509 1511 1513 1514 1516 1518 1519 1521 1523 1525 1526 1528 1529 1531 1532 1533 1535 1536 1537 1538 1539 1539 1540 1541 1541 1542 1543 1544 1545 1546 1546 1547 1548 1549 1549 1550 1550 1551 1551 1551 1551 1551 1551 1551 1551 1551 1551 1552 1552 1552 1552 1553 1553 1554 1558 1559 1558 1557 1555 1554 1553 1552 1552 1551 1551 1551 1550 1550 1550 1550 1550 1550 1550 1550
1492 1493 1494 1495 1496 1499 1501 1503 1505 1507 1508 1510 1511 1513 1515 1516 1518 1520 1522 1523 1525 1527 1528 1529 1531 1532 1533 1535 1536 1537 1538 1539 1540 1541 1541 1542 1543 1544 1545 1546 1546 1547 1548 1549 1550 1550 1551 1551 1552 1552 1552 1553 1553 1553 1553 1553 1552 1553 1553 1553 1553 1554 1554 1555 1557 1560 1560 1559 1557 1555 1555 1554 1553 1553 1553 1552 1552 1552 1551 1551 1551 1551 1551 1551 1551
1491 1492 1493 1495 1497 1499 1501 1503 1505 1507 1509 1510 1512 1514 1515 1517 1518 1520 1522 1523 1525 1527 1528 1529 1530 1532 1533 1535 1536 1537 1538 1539 1540 1541 1541 1542 1543 1544 1545 1546 1547 1548 1549 1550 1550 1551 1552 1552 1553 1553 1553 1554 1554 1554 1554 1554 1554 1554 1555 1554 1554 1554 1555 1556 1560 1561 1560 1559 1557 1556 1555 1555 1554 1554 1554 1554 1553 1553 1553 1553 1553 1553 1553 1553 1552
1491 1492 1494 1496 1497 1499 1502 1504 1506 1508 1510 1512 1513 1515 1516 1518 1519 1520 1522 1524 1525 1527 1528 1529 1530 1532 1533 1535 1536 1537 1538 1539 1540 1541 1542 1543 1544 1545 1546 1547 1548 1549 1549 1550 1551 1552 1553 1553 1554 1554 1554 1554 1555 1555 1555 1555 1555 1555 1555 1555 1555 1555 1555 1557 1562 1562 1561 1560 1558 1557 1556 1555 1555 1555 1555 1555 1555 1555 1554 1554 1554 1554 1554 1554 1554
1492 1493 1495 1496 1498 1500 1503 1506 1507 1509 1511 1513 1515 1516 1518 1519 1520 1522 1523 1525 1526 1527 1528 1529 1531 1532 1534 1535 1536 1537 1538 1539 1540 1541 1542 1543 1544 1545 1546 1548 1548 1549 1550 1551 1552 1553 1553 1554 1554 1555 1555 1555 1556 1556 1556 1556 1556 1556 1556 1556 1555 1556 1556 1558 1562 1563 1562 1561 1559 1558 1557 1556 1556 1556 1556 1556 1556 1556 1556 1556 1555 1555 1555 1555 1555
1492 1494 1496 1497 1499 1501 1504 1507 1509 1511 1513 1515 1516 1518 1519 1520 1521 1523 1524 1525 1527 1528 1529 1530 1532 1533 1534 1536 1536 1538 1538 1539 1540 1541 1542 1543 1544 1545 1547 1548 1549 1549 1550 1552 1553 1553 1554 1554 1555 1555 1556 1556 1557 1557 1557 1557 1557 1557 1557 1557 1556 1557 1558 1559 1562 1563 1563 1562 1560 1558 1558 1557 1557 1557 1557 1557 1557 1557 1557 1557 1557 1557 1556 1556 1556
1494 1496 1498 1498 1499 1502 1504 1507 1510 1512 1514 1515 1517 1518 1519 1521 1522 1523 1525 1526 1527 1528 1529 1531 1532 1534 1535 1536 1537 1538 1538 1539 1540 1542 1543 1543 1544 1546 1547 1548 1549 1550 1551 1552 1553 1554 1554 1555 1556 1556 1556 1557 1557 1558 1558 1558 1558 1558 1557 1558 1558 1558 1559 1560 1562 1563 1563 1562 1560 1559 1558 1558 1558 1558 1558 1558 1558 1558 1558 1558 1558 1557 1557 1557 1557
1499 1500 1500 1500 1500 1503 1504 1507 1510 1511 1513 1515 1517 1518 1519 1521 1522 1524 1525 1526 1527 1529 1530 1531 1533 1534 1535 1536 1537 1538 1539 1540 1541 1542 1543 1543 1545 1546 1547 1548 1549 1550 1551 1553 1553 1554 1555 1556 1556 1557 1557 1557 1558 1558 1559 1559 1559 1559 1559 1559 1559 1559 1560 1562 1564 1564 1563 1561 1560 1559 1559 1559 1558 1558 1558 1558 1559 1559 1559 1559 1559 1558 1558 1558 1558
1504 1505 1506 1506 1505 1505 1506 1508 1510 1512 1514 1516 1518 1519 1520 1521 1523 1524 1526 1527 1528 1529 1531 1532 1533 1534 1536 1537 1538 1539 1540 1540 1541 1542 1543 1544 1545 1546 1547 1548 1549 1550 1552 1553 1554 1555 1556 1556 1557 1557 1558 1558 1559 1559 1559 1560 1560 1560 1559 1559 1560 1560 1561 1563 1564 1564 1562 1561 1560 1560 1560 1559 1559 1559 1559 1559 1559 1559 1560 1560 1560 1559 1559 1559 1559
1506 1509 1510 1512 1512 1510 1509 1510 1512 1514 1516 1518 1519 1520 1522 1523 1524 1526 1527 1528 1529 1530 1532 1533 1534 1535 1536 1537 1539 1539 1540 1541 1542 1543 1543 1544 1545 1546 1547 1548 1549 1551 1552 1553 1554 1555 1556 1557 1557 1558 1559 1559 1559 1559 1560 1560 1560 1560 1560 1560 1560 1560 1562 1564 1565 1564 1563 1561 1561 1561 1560 1560 1560 1559 1559 1559 1560 1560 1560 1561 1561 1560 1560 1560 1560
1504 1509 1511 1513 1515 1515 1514 1515 1516 1517 1518 1520 1521 1522 1523 1525 1526 1527 1528 1529 1530 1531 1532 1533 1534 1535 1537 1538 1539 1539 1540 1541 1542 1543 1544 1544 1545 1546 1547 1548 1549 1551 1552 1553 1554 1555 1556 1557 1558 1558 1559 1559 1559 1560 1560 1560 1560 1561 1561 1560 1560 1561 1563 1564 1565 1565 1564 1562 1561 1561 1561 1561 1561 1560 1560 1560 1560 1561 1561 1561 1561 1561 1561 1561 1561
1502 1506 1509 1512 1515 1517 1517 1518 1518 1520 1521 1522 1522 1523 1524 1526 1527 1528 1529 1530 1531 1532 1532 1533 1535 1536 1537 1538 1539 1540 1540 1541 1542 1543 1543 1544 1545 1546 1546 1547 1549 1550 1552 1553 1554 1555 1556 1557 1557 1558 1559 1559 1559 1560 1560 1560 1560 1560 1561 1561 1561 1562 1563 1564 1565 1564 1564 1563 1562 1562 1562 1562 1561 1561 1561 1561 1561 1561 1561 1562 1562 1562 1562 1562 1562
1501 1503 1504 1508 1513 1516 1518 1519 1519 1522 1524 1523 1523 1524 1525 1526 1528 1529 1530 1531 1531 1532 1532 1533 1535 1535 1536 1537 1539 1540 1540 1541 1542 1543 1543 1544 1545 1546 1547 1547 1548 1550 1551 1553 1554 1555 1556 1556 1557 1558 1559 1559 1559 1560 1559 1559 1559 1560 1560 1561 1562 1563 1563 1565 1564 1564 1564 1562 1562 1562 1562 1562 1562 1562 1562 1562 1562 1562 1562 1562 1562 1562 1562 1562 1562
1500 1500 1500 1503 1511 1517 1518 1519 1521 1522 1524 1524 1523 1524 1526 1527 1528 1529 1530 1531 1532 1532 1532 1534 1535 1535 1536 1537 1539 1540 1541 1541 1542 1543 1544 1545 1545 1546 1547 1547 1548 1549 1551 1552 1553 1554 1555 1556 1557 1558 1558 1559 1560 1560 1560 1559 1558 1559 1559 1560 1563 1563 1564 1565 1564 1564 1563 1562 1563 1563 1563 1563 1562 1562 1562 1562 1562 1562 1562 1562 1562 1562 1562 1563 1562
1498 1499 1498 1497 1503 1513 1519 1520 1522 1522 1522 1523 1524 1525 1526 1528 1529 1529 1530 1531 1532 1532 1532 1534 1534 1535 1536 1538 1539 1540 1541 1541 1542 1543 1544 1545 1545 1546 1547 1548 1549 1549 1550 1552 1553 1554 1555 1556 1557 1558 1559 1559 1559 1559 1560 1559 1558 1559 1559 1560 1562 1563 1564 1563 1562 1563 1563 1562 1563 1563 1563 1563 1562 1562 1562 1562 1562 1562 1562 1562 1562 1562 1563 1563 1563
1495 1497 1498 1495 1493 1502 1513 1519 1520 1521 1521 1522 1524 1526 1527 1529 1530 1529 1530 1531 1531 1531 1532 1533 1534 1535 1536 1537 1539 1540 1540 1541 1542 1543 1544 1545 1545 1546 1548 1549 1550 1550 1551 1552 1553 1553 1555 1556 1557 1557 1558 1558 1558 1559 1559 1558 1558 1559 1559 1560 1561 1563 1562 1560 1561 1562 1562 1563 1563 1563 1563 1563 1563 1562 1562 1562 1562 1562 1562 1562 1563 1563 1563 1563 1563
1493 1495 1497 1497 1493 1492 1500 1512 1518 1518 1520 1523 1525 1527 1528 1529 1529 1529 1531 1531 1530 1531 1531 1532 1534 1535 1535 1536 1538 1540 1540 1540 1541 1542 1544 1545 1546 1547 1548 1549 1550 1550 1551 1552 1553 1554 1555 1556 1556 1556 1557 1557 1558 1559 1559 1558 1558 1558 1558 1559 1560 1562 1560 1558 1560 1562 1562 1563 1563 1563 1563 1563 1563 1562 1562 1562 1562 1562 1562 1563 1563 1563 1563 1563 1563
1492 1493 1494 1496 1499 1497 1496 1506 1517 1518 1521 1525 1527 1529 1529 1529 1529 1529 1530 1530 1530 1530 1531 1532 1533 1533 1534 1535 1537 1539 1540 1540 1541 1542 1544 1545 1546 1547 1548 1549 1550 1550 1551 1552 1553 1554 1554 1554 1555 1556 1556 1557 1558 1559 1559 1559 1560 1559 1559 1559 1560 1561 1560 1557 1560 1562 1563 1563 1564 1564 1563 1563 1563 1563 1563 1563 1563 1563 1563 1563 1563 1563 1563 1563 1564
1491 1492 1494 1494 1497 1500 1500 1508 1516 1518 1522 1527 1528 1528 1528 1529 1528 1529 1529 1529 1530 1529 1530 1531 1531 1531 1532 1534 1535 1537 1539 1540 1541 1542 1543 1543 1544 1546 1547 1548 1550 1550 1551 1552 1552 1553 1553 1554 1554 1555 1556 1557 1558 1559 1559 1559 1560 1560 1560 1559 1558 1559 1559 1560 1563 1565 1564 1564 1564 1564 1563 1563 1563 1563 1563 1563 1563 1563 1563 1563 1563 1564 1564 1564 1564
1491 1492 1496 1497 1496 1496 1499 1508 1515 1517 1522 1526 1526 1526 1527 1528 1528 1528 1528 1528 1529 1528 1529 1529 1529 1529 1530 1532 1534 1536 1537 1538 1540 1541 1541 1542 1543 1544 1545 1547 1548 1550 1550 1551 1551 1552 1552 1553 1554 1555 1556 1556 1557 1558 1558 1559 1560 1560 1561 1558 1554 1556 1559 1563 1566 1566 1565 1565 1565 1564 1563 1563 1563 1564 1564 1564 1564 1564 1564 1564 1564 1564 1564 1565 1565
1492 1494 1497 1501 1501 1498 1499 1506 1513 1516 1520 1522 1523 1525 1526 1527 1527 1527 1528 1527 1528 1528 1528 1528 1529 1529 1530 1532 1534 1536 1537 1538 1539 1540 1540 1541 1542 1543 1544 1546 1548 1549 1550 1550 1551 1552 1552 1553 1553 1554 1555 1555 1556 1557 1557 1559 1560 1560 1561 1557 1554 1557 1560 1563 1565 1565 1565 1565 1564 1564 1563 1564 1564 1565 1564 1564 1564 1564 1565 1565 1565 1565 1565 1565 1565
1493 1496 1498 1501 1503 1502 1502 1505 1510 1514 1517 1519 1521 1522 1524 1525 1526 1527 1527 1527 1527 1527 1527 1527 1529 1530 1531 1532 1534 1536 1537 1539 1540 1540 1540 1540 1541 1542 1544 1545 1547 1548 1549 1550 1551 1552 1553 1553 1553 1553 1553 1554 1555 1556 1557 1559 1559 1560 1560 1556 1556 1560 1561 1562 1563 1564 1565 1564 1564 1564 1564 1565 1565 1566 1566 1565 1565 1565 1565 1565 1566 1566 1566 1566 1566
1495 1497 1499 1502 1503 1502 1503 1506 1510 1513 1515 1517 1518 1519 1521 1523 1524 1525 1526 1526 1527 1526 1526 1527 1528 1531 1533 1533 1534 1536 1537 1540 1540 1540 1540 1540 1540 1542 1543 1544 1546 1548 1549 1550 1551 1552 1553 1553 1553 1553 1553 1554 1555 1556 1557 1558 1559 1560 1559 1557 1559 1561 1561 1562 1563 1563 1564 1564 1564 1564 1564 1566 1566 1567 1567 1566 1566 1566 1566 1566 1566 1567 1567 1566 1566
1495 1497 1498 1501 1502 1503 1505 1507 1510 1513 1515 1516 1517 1518 1519 1521 1522 1524 1525 1526 1526 1526 1526 1526 1528 1532 1533 1533 1535 1536 1538 1540 1541 1540 1539 1539 1540 1541 1543 1544 1545 1547 1548 1550 1551 1552 1553 1553 1553 1554 1553 1554 1555 1556 1557 1558 1559 1559 1559 1558 1559 1561 1561 1562 1562 1562 1563 1563 1564 1564 1565 1566 1567 1567 1566 1566 1567 1567 1567 1567 1567 1567 1567 1567 1567
1494 1496 1497 1500 1502 1504 1506 1508 1510 1512 1514 1515 1516 1517 1518 1519 1521 1523 1524 1526 1526 1526 1526 1526 1528 1532 1533 1534 1535 1536 1537 1540 1542 1541 1539 1539 1540 1541 1542 1543 1544 1546 1548 1549 1551 1552 1553 1553 1554 1554 1554 1554 1555 1556 1557 1558 1558 1558 1559 1559 1559 1561 1561 1561 1562 1562 1563 1563 1564 1565 1566 1567 1567 1567 1566 1566 1567 1567 1567 1567 1568 1568 1568 1568 1568
1495 1496 1497 1500 1503 1504 1506 1508 1509 1511 1513 1515 1515 1516 1517 1519 1520 1523 1524 1525 1526 1526 1526 1526 1527 1530 1532 1533 1535 1536 1537 1540 1542 1542 1540 1540 1541 1542 1542 1543 1544 1545 1547 1548 1550 1552 1552 1552 1553 1553 1553 1554 1554 1555 1556 1557 1558 1559 1559 1559 1559 1561 1561 1561 1562 1562 1562 1563 1564 1565 1567 1568 1567 1567 1567 1566 1567 1567 1567 1568 1568 1568 1569 1569 1569
1496 1497 1498 1500 1501 1503 1504 1506 1508 1510 1512 1514 1515 1516 1517 1519 1520 1522 1524 1524 1525 1525 1526 1526 1527 1529 1531 1533 1534 1535 1537 1539 1542 1543 1541 1541 1542 1543 1543 1543 1543 1544 1546 1547 1549 1551 1552 1552 1552 1552 1553 1553 1553 1554 1556 1557 1558 1559 1559 1559 1559 1561 1561 1561 1561 1562 1562 1563 1564 1565 1566 1567 1567 1567 1567 1566 1567 1567 1568 1568 1569 1569 1569 1569 1570
1496 1498 1499 1500 1500 1501 1503 1505 1507 1509 1511 1513 1514 1516 1516 1518 1520 1521 1522 1523 1524 1525 1525 1525 1527 1529 1531 1534 1534 1535 1537 1539 1542 1542 1541 1541 1542 1543 1543 1543 1543 1544 1545 1547 1549 1550 1551 1551 1551 1552 1552 1552 1552 1553 1555 1557 1558 1559 1559 1559 1560 1560 1561 1561 1561 1561 1562 1563 1563 1564 1565 1566 1567 1567 1567 1567 1567 1567 1568 1569 1569 1569 1570 1570 1570
1497 1498 1500 1500 1501 1502 1503 1505 1507 1508 1510 1511 1513 1514 1515 1516 1518 1520 1521 1522 1523 1524 1525 1526 1527 1529 1531 1533 1534 1535 1537 1539 1541 1541 1541 1541 1541 1543 1544 1543 1543 1543 1544 1547 1549 1549 1550 1550 1551 1551 1551 1552 1553 1553 1555 1556 1557 1558 1558 1559 1560 1560 1561 1561 1561 1561 1561 1562 1563 1564 1565 1565 1565 1566 1567 1567 1568 1568 1568 1569 1569 1570 1570 1571 1571
1497 1499 1500 1501 1502 1503 1503 1505 1506 1508 1509 1510 1511 1512 1514 1515 1517 1519 1520 1522 1522 1523 1525 1526 1528 1530 1532 1534 1534 1535 1537 1539 1540 1540 1541 1542 1543 1544 1544 1543 1543 1543 1544 1546 1548 1548 1549 1550 1550 1550 1551 1552 1553 1553 1554 1556 1557 1557 1558 1559 1560 1560 1561 1561 1561 1561 1561 1561 1563 1564 1564 1565 1565 1566 1567 1568 1568 1568 1569 1569 1570 1571 1571 1571 1572
1497 1499 1500 1501 1502 1503 1504 1505 1506 1507 1509 1510 1511 1512 1514 1515 1516 1519 1521 1522 1522 1523 1525 1526 1529 1532 1532 1534 1535 1537 1538 1538 1539 1540 1541 1542 1543 1544 1543 1543 1543 1543 1544 1545 1546 1547 1548 1549 1549 1550 1551 1552 1553 1553 1554 1556 1557 1557 1558 1559 1560 1561 1561 1562 1562 1561 1561 1562 1563 1564 1564 1565 1565 1566 1567 1568 1568 1568 1569 1569 1570 1570 1571 1571 1572
1496 1499 1500 1502 1503 1504 1504 1505 1506 1507 1509 1509 1510 1513 1515 1515 1516 1519 1521 1522 1522 1523 1525 1527 1530 1532 1533 1534 1536 1537 1538 1538 1539 1540 1540 1541 1542 1542 1542 1543 1542 1542 1543 1544 1545 1547 1548 1548 1549 1550 1550 1552 1553 1554 1554 1556 1557 1557 1558 1559 1560 1561 1562 1563 1563 1562 1562 1562 1563 1564 1565 1565 1566 1567 1567 1568 1568 1568 1569 1570 1570 1570 1571 1572 1573
1496 1498 1500 1502 1504 1504 1505 1505 1506 1508 1508 1509 1510 1513 1515 1515 1516 1519 1520 1522 1522 1523 1525 1528 1530 1532 1533 1534 1536 1537 1538 1538 1538 1538 1539 1539 1540 1540 1541 1542 1541 1541 1543 1544 1545 1547 1547 1547 1548 1549 1550 1552 1553 1554 1555 1556 1557 1557 1559 1560 1560 1561 1562 1563 1563 1563 1563 1563 1564 1565 1565 1566 1566 1567 1568 1568 1568 1569 1569 1571 1571 1571 1571 1573 1573
1496 1498 1500 1502 1504 1505 1506 1506 1507 1508 1509 1509 1510 1513 1515 1516 1517 1518 1519 1520 1521 1522 1525 1527 1530 1532 1533 1534 1535 1537 1537 1537 1538 1537 1538 1538 1539 1539 1540 1541 1541 1542 1542 1544 1545 1546 1547 1548 1548 1549 1550 1552 1553 1554 1555 1556 1557 1557 1558 1560 1560 1561 1562 1562 1563 1563 1563 1563 1564 1565 1566 1566 1567 1568 1568 1568 1568 1569 1569 1571 1572 1572 1572 1573 1573
1495 1498 1501 1502 1504 1506 1507 1507 1508 1509 1510 1510 1511 1513 1515 1517 1518 1519 1520 1520 1521 1522 1523 1527 1530 1531 1532 1532 1534 1535 1536 1536 1536 1536 1537 1537 1538 1539 1540 1540 1541 1542 1542 1544 1545 1546 1547 1547 1548 1549 1550 1551 1552 1554 1555 1556 1556 1557 1558 1559 1560 1561 1561 1561 1563 1564 1564 1565 1565 1566 1566 1567 1567 1568 1568 1569 1569 1569 1570 1571 1572 1572 1573 1573 1573
1494 1498 1502 1503 1505 1505 1506 1506 1507 1509 1510 1510 1512 1513 1515 1517 1518 1519 1521 1521 1521 1522 1523 1527 1530 1530 1530 1531 1531 1533 1534 1535 1535 1536 1536 1537 1538 1539 1539 1540 1541 1541 1542 1543 1544 1545 1546 1547 1548 1549 1550 1551 1553 1554 1555 1556 1557 1557 1558 1559 1559 1560 1560 1561 1563 1564 1565 1566 1566 1566 1567 1567 1567 1568 1569 1569 1569 1570 1570 1571 1571 1572 1572 1573 1573
1493 1497 1499 1502 1504 1504 1504 1505 1506 1509 1509 1510 1512 1513 1514 1516 1517 1519 1521 1521 1522 1523 1524 1527 1529 1528 1528 1529 1530 1532 1533 1534 1535 1536 1536 1537 1538 1538 1539 1540 1541 1542 1542 1543 1544 1545 1546 1547 1548 1549 1549 1551 1552 1553 1554 1556 1557 1558 1558 1559 1560 1560 1560 1561 1563 1564 1564 1565 1566 1567 1567 1568 1568 1568 1569 1569 1569 1570 1570 1571 1571 1572 1573 1573 1573
1492 1495 1496 1498 1502 1503 1504 1504 1505 1508 1507 1506 1509 1510 1511 1513 1515 1518 1520 1520 1522 1523 1524 1526 1527 1527 1527 1528 1530 1531 1533 1534 1535 1536 1536 1536 1537 1538 1539 1540 1541 1542 1543 1543 1544 1545 1546 1546 1547 1549 1550 1551 1552 1553 1554 1556 1557 1558 1558 1559 1560 1560 1561 1561 1562 1563 1564 1565 1566 1567 1567 1568 1569 1569 1569 1569 1570 1570 1570 1571 1572 1573 1573 1573 1573
1490 1493 1495 1497 1500 1502 1503 1503 1504 1505 1503 1502 1504 1506 1507 1510 1513 1516 1518 1519 1520 1521 1523 1525 1526 1526 1527 1528 1529 1530 1532 1533 1534 1535 1535 1536 1537 1538 1538 1540 1540 1541 1543 1544 1544 1545 1546 1547 1548 1549 1550 1551 1552 1553 1554 1555 1556 1557 1558 1559 1559 1560 1561 1562 1563 1563 1564 1564 1565 1566 1567 1568 1568 1569 1569 1570 1570 1570 1571 1572 1573 1573 1574 1574 1573
1489 1491 1494 1495 1498 1500 1501 1502 1503 1504 1502 1501 1503 1504 1507 1510 1513 1515 1517 1518 1519 1521 1523 1525 1525 1526 1526 1527 1528 1529 1531 1532 1533 1534 1535 1536 1536 1537 1538 1540 1540 1542 1543 1544 1545 1546 1546 1547 1548 1549 1550 1551 1552 1553 1554 1555 1556 1557 1558 1559 1559 1560 1561 1561 1562 1563 1564 1564 1565 1566 1567 1567 1568 1569 1569 1570 1570 1571 1571 1572 1573 1574 1574 1574 1574